Weather in Belaya Rechka

Russia / Vladimir Oblast     56°17′05″N   39°24′11″E
temp.,
°C
wind,
m/s
gust,
m/s
humid.,
%
clouds,
%
prec.,
mm/h
press.,
hPa
HPBL,
m
4 march, thu
thu400:00−2wsw41190100 0.1 1005734
03:00−1wsw61396100 0.8 1002836
06:00+1w71597100 1.8 9981116
09:00+1w71497100 2.4 9971121
12:000nw6117298 1.0 9981282
15:00−1nw477669 1.0 9991076
18:00−5nnw2790100 0.0 999213
21:00−8nw239380 0.0 100171
5 march, fri
fri500:00−8nw239679 0.1 100293
03:00−9nw239787 0.1 100451
06:00−11wnw239624 0.0 100535
09:00−7w369351 0.1 1006296
12:00−4wnw4685100 0.2 1007794
15:00−4nw4775100 0.6 10081160
18:00−7nw278998 0.3 1010193
21:00−10nw259255 0.3 1013116
6 march, sat
sat600:00−13nne129211 0.0 101520
03:00−14ese008729 0.0 101620
06:00−14ssw118675 0.0 101620
09:00−11w118577 0.0 101684
12:00−8nnw2382100 0.0 1016538
15:00−7nnw3478100 0.1 1016864
18:00−11wnw228854 0.0 101521
21:00−13sw239027 0.0 101525
7 march, sun
sun700:00−12sw499013 0.0 1013233
03:00−12ssw5129216 0.0 1009334
06:00−9ssw61492100 0.2 1005654
09:00−7sw71492100 0.6 1000936
12:00−5sw81491100 1.4 9961152
15:00−3sw61292100 2.7 9931034
18:00−7wnw51469100 1.1 9951354
21:00−11wsw3128167 1.1 998265
8 march, mon
mon800:00−8wsw5148167 0.0 996679
03:00−8sw4128583 0.0 995673
06:00−8sw41092100 0.3 993718
09:00−8w4889100 0.9 994698
12:00−7nw4781100 0.1 996963
15:00−9nw71284100 0.3 1000863
18:00−10wnw51186100 0.0 1004740
21:00−11wnw4129184 0.0 1007477